Regional Weather Roundup
Issued by NWS

Home | Current Version | Previous Version | Graphics & Text | Print | Product List | Glossary On
Versions: 1 2 3 4 5 6 7 8 9 10 11 12 13 14 15 16 17 18 19 20 21 22 23 24 25 26 27 28 29 30 31 32 33 34 35 36 37 38 39 40 41 42 43 44 45 46 47 48 49 50
000
ASUS43 KMPX 300101
RWRMN
WEATHER ROUNDUP FOR MINNESOTA
NATIONAL WEATHER SERVICE TWIN CITIES/CHANHASSEN MN
800 PM CDT FRI APR 29 2016


NOTE: "FAIR" INDICATES FEW OR NO CLOUDS BELOW 12,000 FEET WITH NO
SIGNIFICANT WEATHER AND/OR OBSTRUCTIONS TO VISIBILITY. N/A MEANS
CURRENT SKY AND/OR WEATHER CONDITIONS ARE NOT AVAILABLE.

MNZ060>063-068>070-300200-
   Twin Cities Metro

CITY           SKY/WX    TMP DP  RH WIND       PRES   REMARKS
TWIN CITIES    PTCLDY    56  37  49 SE8       30.10S
ST PAUL        CLEAR     54  39  57 SE7       30.11S
CRYSTAL        CLEAR     57  33  40 NE5       30.10S
BLAINE         PTCLDY    57  34  41 E3        30.11S
EDEN PRAIRIE   CLEAR     57  33  40 E5        30.09S
SOUTH ST PAUL  CLEAR     56  38  50 SE3       30.10F
LAKE ELMO      FAIR      55  39  54 SE3       30.12S
$$
MNZ001>005-007-008-013>017-022>024-027-028-300200-
   Northwest Minnesota

CITY           SKY/WX    TMP DP  RH WIND       PRES   REMARKS
BEMIDJI        CLOUDY    54  34  46 E3        30.15R
HALLOCK        CLEAR     61  28  29 E13       30.19R
ROSEAU         CLEAR     55  37  50 E9        30.22R
WARROAD        CLEAR     52  34  50 NE5       30.23R
THIEF RVR FALL CLEAR     57  30  35 NE15      30.18S
CROOKSTON      CLEAR     59  32  36 NE13      30.17R
FOSSTON        CLEAR     57  30  35 NE9       30.16S
DETROIT LAKES  CLEAR     59  30  33 E7        30.13R
MOORHEAD       PTCLDY    63  30  29 E6        30.10F
PARK RAPIDS    CLEAR     59  30  33 NE8       30.13R
MAHNOMEN       FAIR      59  33  36 NE12      30.12S
$$
MNZ006-009>011-018-025>026-300200-
   North Central Minnesota

CITY           SKY/WX    TMP DP  RH WIND       PRES   REMARKS
BAUDETTE       CLEAR     53  31  42 N9        30.20R
FLAG ISLAND    CLEAR     54  30  40 N8        30.22R
INTL FALLS     CLOUDY    53  30  41 E6        30.21R
WASKISH        CLEAR     55  32  41 E8        30.19R
BIG FORK       CLEAR     54  30  40 NE8       30.19R
LONGVILLE      CLEAR     57  28  33 NE7       30.14R
GRAND RAPIDS   MOCLDY    54  28  37 NE3       30.18R
CRANE LAKE     CLEAR     48  30  49 CALM      30.24R
ORR            CLEAR     50  27  40 CALM      30.18R
COOK           CLEAR     48  30  49 E5        30.21R
WALKER         FAIR      57  31  37 CALM      30.14R
$$
MNZ012-019>021-037-300200-
   Northeast Minnesota

CITY           SKY/WX    TMP DP  RH WIND       PRES   REMARKS
DULUTH         PTCLDY    45  28  51 E9        30.20R
ELY            CLOUDY    46  30  53 N6        30.22R
HIBBING        CLEAR     50  30  46 NE8       30.18R
EVELETH        CLEAR     50  30  46 NE7       30.20R
DULUTH HARBOR  CLEAR     41  36  81 NE9       30.23R
TWO HARBORS    CLEAR     46  34  61 NE6       30.20R
SILVER BAY     CLEAR     45  28  53 N3        30.20S
GRAND MARAIS     N/A     41  32  70 SW3       30.23R
G MARAIS ARPRT CLOUDY    41  27  56 CALM      30.22R
$$
MNZ029>031-032-039>041-046>048-054>057-064-300200-
   West Central Minnesota

CITY           SKY/WX    TMP DP  RH WIND       PRES   REMARKS
FERGUS FALLS   CLEAR     57  36  44 S5        30.08S
WHEATON        CLEAR     57  41  54 SE3       30.12S
MORRIS         CLEAR     57  39  51 NE3       30.09F
ALEXANDRIA     CLEAR     55  33  43 E7        30.11S
ELBOW LAKE     MOCLDY    55  39  53 W8        30.11S
WADENA         CLEAR     57  32  38 E7        30.11S
GLENWOOD       CLEAR     55  36  47 NE8       30.11S
APPLETON       CLEAR     54  39  58 SE3       30.09S
BENSON         CLEAR     55  36  47 SE3       30.10S
ORTONVILLE     CLEAR     54  39  58 CALM      30.10S
MADISON        CLOUDY    52  43  71 E5        30.09F
WILLMAR        FAIR      55  37  50 E8        30.11S
$$
MNZ033>034-036-042>043-049>051-058-059-300200-
   Central Minnesota

CITY           SKY/WX    TMP DP  RH WIND       PRES   REMARKS
ST CLOUD       CLEAR     57  33  40 NE6       30.11S
SAUK CENTRE    FAIR      54  35  48 E6        30.11S
PAYNESVILLE    CLEAR     56  32  40 E6        30.11S
AITKIN         CLOUDY    57  27  30 CALM      30.13R
PINE RIVER     PTCLDY    55  36  47 E7        30.16R
BRAINERD       CLEAR     55  29  36 SE7       30.13S
STAPLES        CLEAR     57  28  33 E3        30.13R
LONG PRAIRIE   FAIR      55  32  41 NE3       30.13R
LITTLE FALLS   CLEAR     55  30  38 E6        30.13S
LITCHFIELD     CLEAR     55  37  50 E3        30.11S
BUFFALO        CLEAR     56  36  47 E3        30.12S
MAPLE LAKE     CLEAR     57  37  46 E5        30.12S
HUTCHINSON     CLEAR     54  40  59 NE3       30.12S
$$
MNZ037-044-045-052-053-300200-
   East Central Minnesota

CITY           SKY/WX    TMP DP  RH WIND       PRES   REMARKS
PRINCETON      CLEAR     57  34  41 NE6       30.12S
MORA           CLEAR     54  30  40 NE6       30.15S
CAMBRIDGE      CLEAR     61  37  41 NE3       30.09F
RUSH CITY      CLEAR     55  32  42 NE9       30.13R
MOOSE LAKE     CLEAR     52  30  43 NE7       30.16R
HINCKLEY       FAIR      54  32  43 NE6       30.14S
CLOQUET        CLEAR     46  27  46 E7        30.20R
MCGREGOR       CLEAR     52  34  50 E10G16    30.16R
$$
MNZ071>073-080-081-089-090-097-098-300200-
   Southwest Minnesota

CITY           SKY/WX    TMP DP  RH WIND       PRES   REMARKS
MONTEVIDEO     PTCLDY    52  41  66 SE7       30.11S
GRANITE FALLS  CLOUDY    55  42  63 E5        30.11S
CANBY          CLOUDY    54  46  72 NE3       30.10F
MARSHALL       CLOUDY    50  41  71 E7        30.09F
REDWOOD FALLS  CLOUDY    54  37  52 NE3       30.09F
OLIVIA         CLEAR     54  39  58 E5        30.09S
PIPESTONE      CLOUDY    48  39  71 E8        30.05S
WINDOM         CLOUDY    48  41  76 CALM      30.07F
WORTHINGTON    CLOUDY    47  41  80 E9        30.06F
JACKSON        CLOUDY    50  39  66 E10       30.07F
TRACY          CLOUDY    50  43  77 NE8       30.08F
SLAYTON        CLOUDY    49  40  70 NE10      30.06F
$$
MNZ065>067-074>077-082>085-091>093-300200-
   South Central Minnesota

CITY           SKY/WX    TMP DP  RH WIND       PRES   REMARKS
MANKATO        CLOUDY    52  39  62 E8        30.10S
NEW ULM        CLOUDY    54  37  54 CALM      30.09S
ST JAMES       CLOUDY    46  37  71 E8        30.09F
FAIRMONT       CLOUDY    48  37  66 E10       30.07F
GLENCOE        CLOUDY    54  40  57 CALM      30.10S
FARIBAULT      CLOUDY    52  41  66 E6        30.11S
OWATONNA       PTCLDY    48  39  71 E6        30.11S
WASECA         CLOUDY    50  41  71 E6        30.11S
ALBERT LEA     CLOUDY    48  39  71 E8        30.09F
$$
MNZ078>079-086>088-094>096-300200-
   Southeast Minnesota

CITY           SKY/WX    TMP DP  RH WIND       PRES   REMARKS
ROCHESTER      CLOUDY    48  40  73 E7        30.12S
RED WING       CLEAR     54  39  58 CALM      30.11S
STANTON        CLEAR     53  40  61 SE3       30.10F
DODGE CENTER   CLOUDY    48  39  71 E8        30.11S
WINONA         CLOUDY    52  41  66 CALM      30.13F
AUSTIN         CLOUDY    48  39  71 E8        30.09F
PRESTON        CLOUDY    47  38  70 E5        30.12S
$$
ABBREVIATIONS USED IN REMARKS
   TC - TEMPERATURES IN CELSIUS
  WCI - WIND CHILL INDEX
   HX - HEAT INDEX
  VSB - VISIBILITY
$$




USA.gov is the U.S. government's official web portal to all federal, state and local government web resources and services.